NOAA 13

Satellite information

Favourite Embed

Satellite Type and Status

PAYLOADIN ORBIT

Key statistics

Satellite NOAA 13 at a glance.

Uptime

11656

Days in orbit

Revolutions

≈ 14.1

Per day

Orbit

SSO

Sun Synchronous Orbit

Inclination

98.7

Latest

Satellite identification and parameters

Extended collection of information and parameters for NOAA 13.

Object identification

Identified? True

Debris? False

Object name: NOAA 13

International designator: 1993-050A

Object number (NORAD): 22739

Object ID (CCSDS): 22739

Country: UNITED STATES OF AMERICA (US)

Current information (Y/N): Y

RCS size: LARGE

Orbital parameters

Period: 101.872 minutes

Inclination: 98.6574 deg

SMA: 7225.439 km

Apoapsis: 854.702 km

Periapsis: 839.905 km

RAAN: 138.0042 deg

Eccentricy: 0.001024

Argument of periapsis: 40.1232 deg

Mean anomaly: 320.0695 deg

Mean motion: 14.13534609 rev/day

Mean motion (dot): 0.00000052 rev/day2

B* drag term: 0.000050008 1/REarth

Two-line elements (TLE)

Creation date: July 6, 2025, 10:36 p.m.

Reference frame: TEME

Reference center: EARTH

Epoch: July 6, 2025, 9:28 p.m. UTC

TLE line 0: 0 NOAA 13

TLE line 1: 1 22739U 93050A 25187.89498461 .00000052 00000-0 50008-4 0 9996

TLE line 2: 2 22739 98.6574 138.0042 0010240 40.1232 320.0695 14.13534609644837

Live tracking on map

Real-time ground track for satellite NOAA 13.

In-orbit conjunctions

A list of the most updated potential collisions computed for object NOAA 13.

Target Orbit TCA Probability of collision Miss distance Type
DODECAPOLE 2 SSO 2025-06-02 01:13:27 0.0002238879 801.0 (m) PAYLOAD
COSMOS 1275 DEB LEO 2025-03-03 20:53:36 0.0001669219 241.0 (m) DEBRIS
SL-18 R/B LEO 2024-06-06 09:54:22 0.0002403899 167.0 (m) ROCKET BODY

Associated space launch

Fourth generation NOAA meteorological satellite

NOAA 13 was lifted into orbit during the mission ‘Atlas E | NOAA 13’, on board a Atlas E space rocket.

The launch took place on Aug. 9, 1993, 10:02 a.m. from Space Launch Complex 3W.

For more information about the launch, click the button.

Launch to space Atlas E | NOAA 13
Atlas E | NOAA 13

Agency: N/A

Status: Launch Successful

Launch date: Aug. 9, 1993, 10:02 a.m. UTC

Rocket: Atlas E

Launch pad: Space Launch Complex 3W

Location: Vandenberg SFB, CA, USA

...

Latest news about this satellite

There are no fresh news available about this satellite. Check back as we update our databases every day.


Newsletter sign-up

Weekly statistics, charts and insights to help you stay on top of the space industry.